Wind_Speed
34 34 35 36 36 37 38 39 39 40 40 41 40 41 38 38 36 38 41 34 37 33 29 24 22 22 24 23 22 18 24 29 27 25 26 22 23 16 15 14 22 17 14 18 19
34 35 36 37 38 39 39 41 42 42 43 44 44 42 41 40 40 43 36 36 40 38 35 30 29 24 26 24 26 27 31 33 24 25 27 26 25 25 22 23 24 21 19 22 22
29 31 34 36 38 40 42 43 43 43 45 46 45 45 43 43 42 43 41 39 39 40 39 36 32 29 29 27 28 30 42 30 30 28 28 30 29 29 29 31 26 31 28 28 28
26 27 29 32 34 37 39 41 43 45 46 46 47 47 47 46 35 33 36 39 42 40 41 41 41 38 34 34 31 36 38 35 33 32 33 35 33 36 35 36 33 36 30 36 32
23 24 24 24 26 28 32 36 39 42 44 45 46 47 49 51 53 47 37 31 35 38 42 42 45 45 43 36 33 41 38 36 37 36 37 37 41 44 45 42 43 41 41 39 36
19 20 21 22 23 23 23 23 26 29 34 40 43 45 47 54 47 42 43 46 43 37 34 37 45 45 44 40 43 41 39 42 43 45 43 45 47 45 48 44 46 42 41 40 39
22 22 23 23 23 24 24 24 23 23 25 28 31 36 48 54 42 40 46 50 42 41 36 30 22 35 41 42 41 43 49 50 52 47 49 45 54 54 48 41 42 42 42 40 39
25 27 28 28 28 28 26 26 26 26 25 26 25 29 45 35 37 43 45 45 38 46 48 42 30 31 33 37 37 45 46 54 54 49 56 45 57 57 48 41 43 39 36 37 36
26 28 29 29 29 29 29 29 31 30 28 27 24 28 33 22 22 29 35 42 37 40 42 46 41 41 26 30 38 44 46 53 57 53 48 44 48 53 44 40 43 41 37 36 39
28 28 28 29 30 30 27 24 26 27 29 26 15 16 10 11 8 8 5 12 28 37 37 30 31 37 31 36 47 45 48 55 48 40 37 42 45 49 41 37 40 41 38 36 38
29 29 29 29 28 28 25 23 14 25 17 11 14 24 14 10 11 13 10 13 13 19 30 29 30 45 70 53 48 43 50 49 46 41 39 40 44 49 42 39 41 39 39 40 37
28 28 27 27 25 24 25 19 17 21 33 29 35 37 36 27 32 29 22 21 18 23 21 28 50 67 37 43 46 46 45 47 44 36 36 38 41 44 43 40 38 36 38 35 38
27 26 25 22 22 23 22 15 23 20 29 37 24 36 29 22 30 26 24 26 27 25 26 35 59 35 40 44 40 47 49 46 46 35 36 35 42 43 42 40 40 38 38 41 44
27 27 26 24 25 20 9 21 16 22 18 13 4 5 8 16 19 17 20 24 28 32 28 34 34 42 41 46 44 47 42 38 37 35 34 31 31 46 40 37 35 34 33 35 35
26 27 27 26 25 18 16 16 16 10 6 9 7 4 4 10 10 7 9 16 24 27 27 50 33 35 44 53 40 54 34 35 35 37 35 36 30 52 29 29 26 27 31 31 28
26 25 23 26 24 23 20 18 13 7 4 12 16 21 10 12 15 7 8 10 17 19 28 40 34 35 41 40 40 34 37 36 36 35 25 45 36 51 38 32 31 30 29 25 25
24 22 23 22 22 23 16 10 10 2 18 15 20 17 17 17 13 14 14 15 15 13 26 31 34 36 35 35 40 40 36 25 23 22 23 33 35 47 36 29 29 26 23 18 14
23 20 20 28 22 23 17 13 5 17 19 23 23 24 20 17 19 20 19 18 18 20 21 21 20 35 38 43 37 48 45 27 24 15 22 38 35 43 34 27 22 15 15 11 12
22 20 25 20 19 18 15 7 11 21 20 25 24 20 18 19 18 17 25 17 20 19 14 14 20 22 34 37 39 38 50 45 36 33 24 27 35 39 26 25 18 11 12 13 16
23 16 14 21 19 15 11 13 18 21 19 20 22 19 25 29 15 15 14 8 14 9 9 15 25 28 25 35 42 43 39 45 39 23 21 27 28 18 12 21 15 14 16 20 18
21 14 19 22 17 12 11 17 24 21 18 21 23 20 24 23 20 21 9 7 9 8 13 18 21 40 25 30 45 42 43 53 36 38 16 14 19 17 13 8 14 16 20 20 15
20 8 20 28 15 16 17 22 23 20 19 20 18 21 16 23 25 19 18 16 3 9 15 14 15 30 31 24 38 43 40 38 30 33 36 26 26 8 11 11 14 18 23 22 17
19 9 22 26 17 25 21 23 19 20 17 20 18 18 22 17 16 15 17 1 9 11 8 9 11 16 27 26 29 44 46 42 40 29 32 23 24 11 10 13 16 21 21 16 17
18 12 12 17 16 23 24 20 20 20 22 15 19 18 14 18 19 13 23 12 13 18 16 17 17 22 17 12 9 20 45 47 43 43 33 35 11 12 19 19 16 16 15 15 22
14 9 16 18 21 16 17 22 22 22 19 18 18 15 20 22 22 21 18 16 16 13 9 12 19 19 29 28 21 22 23 45 46 45 38 33 14 21 20 19 18 16 18 22 23
18 22 21 21 14 18 15 21 20 24 24 20 16 18 20 20 21 25 23 21 17 17 11 14 12 22 19 20 27 27 28 27 47 39 44 37 20 18 24 19 17 19 23 23 19
23 23 25 26 18 19 20 19 24 27 19 21 21 22 17 19 23 26 26 28 25 22 22 19 13 23 16 15 19 22 30 27 46 41 41 30 25 27 21 18 17 19 19 20 17
Wind_Direction
275 274 273 271 270 268 268 267 265 265 263 263 262 260 256 256 256 257 252 251 249 249 252 256 254 251 242 234 230 231 242 245 245 250 261 267 278 272 272 278 264 276 278 265 281
276 276 275 274 274 272 269 267 266 265 264 263 262 261 261 258 256 255 260 250 246 247 245 248 255 254 250 238 234 226 233 239 241 250 260 270 268 271 273 268 269 271 280 285 286
277 277 277 275 273 272 271 272 270 267 267 267 265 266 264 263 262 265 258 252 248 244 243 241 241 250 246 235 232 232 239 242 246 253 263 264 268 269 270 270 276 276 281 278 284
289 287 284 282 279 276 273 271 269 269 268 266 265 264 263 261 262 258 260 255 248 244 240 236 234 232 235 237 233 238 242 245 252 257 261 263 266 268 271 274 282 280 285 279 279
303 301 298 294 289 284 280 277 273 269 268 267 265 263 261 258 253 254 254 249 247 243 243 241 235 232 233 236 237 238 242 248 253 258 259 264 267 271 272 277 278 280 275 273 271
316 313 311 309 305 300 294 288 285 282 277 269 265 263 262 257 256 254 252 245 245 244 245 240 238 233 241 237 237 241 249 251 256 258 259 264 270 270 272 275 275 277 274 272 272
320 318 315 311 307 303 301 299 296 290 284 282 278 272 259 256 253 253 250 245 239 239 237 230 246 236 237 243 242 250 254 256 254 255 260 264 269 265 269 272 274 271 271 271 272
330 326 322 318 313 309 305 301 296 294 292 288 285 278 268 271 263 247 245 248 240 239 232 225 202 223 238 247 246 248 251 257 252 253 256 258 265 267 266 268 269 270 271 270 275
336 331 326 320 314 312 311 311 308 306 302 294 291 283 290 285 265 259 248 247 238 234 234 235 226 221 234 237 242 239 246 247 252 250 259 255 261 268 270 265 267 267 269 267 265
335 330 324 320 318 316 316 314 310 309 304 301 289 280 303 291 252 273 230 262 239 231 230 229 229 231 235 224 227 226 235 242 252 252 254 253 254 266 269 265 266 267 265 267 266
334 329 326 322 319 316 315 312 308 315 306 255 261 277 219 261 282 246 273 270 248 236 231 222 218 220 229 223 233 236 240 248 255 255 253 257 260 265 269 267 263 264 262 266 267
339 333 328 325 324 324 324 325 314 298 290 277 275 268 263 267 264 255 252 250 244 241 233 215 222 232 230 231 234 238 247 250 255 255 255 263 263 265 264 262 265 266 267 270 272
344 342 340 338 336 331 337 329 318 326 294 297 283 259 254 258 262 263 248 241 237 237 228 223 230 232 230 233 233 235 237 244 251 258 261 267 269 266 263 263 264 264 267 268 267
349 350 348 347 340 338 357 292 328 293 297 328 342 340 223 235 254 254 243 236 235 237 234 238 240 230 233 234 227 237 234 243 250 253 259 257 270 262 264 265 265 267 267 269 274
352 354 348 349 340 338 333 325 318 319 276 27 87 43 311 228 284 277 222 218 236 242 234 237 233 232 232 232 228 239 237 241 246 251 257 256 259 265 266 266 269 265 267 269 269
356 355 350 346 342 337 323 316 327 282 255 352 353 348 306 253 256 274 241 263 242 246 236 247 242 238 237 239 233 238 238 243 248 251 247 247 245 267 262 267 272 271 273 269 265
357 357 352 351 353 339 326 321 314 314 342 351 338 335 316 301 284 263 259 255 245 257 246 252 247 239 236 238 228 228 229 236 238 238 243 248 241 253 265 268 267 273 270 264 253
355 356 6 13 350 353 4 352 273 338 356 341 338 327 316 304 291 278 267 258 259 257 267 277 266 232 224 228 226 222 226 218 219 216 245 249 251 258 251 266 261 267 246 236 216
353 353 16 344 346 341 350 322 347 345 341 336 333 331 321 326 303 295 259 258 262 260 272 299 270 247 234 227 226 227 225 225 237 236 250 252 241 252 246 241 245 253 215 199 196
354 358 353 345 345 335 340 302 309 331 328 328 326 320 311 320 334 292 290 275 264 258 268 278 283 269 265 226 230 229 222 224 225 234 239 236 251 273 209 234 228 225 198 200 217
349 350 335 346 341 344 313 318 318 319 317 316 311 317 316 317 316 321 268 262 237 251 271 274 263 267 275 247 217 224 231 217 228 226 238 247 268 234 193 183 184 183 174 201 225
346 343 302 332 331 338 326 324 320 329 323 322 308 313 313 314 307 300 270 287 267 294 289 257 256 258 263 245 218 222 219 219 220 220 231 243 248 169 158 162 176 182 179 201 224
5 340 304 333 323 319 323 322 323 337 323 321 315 314 317 310 315 303 308 117 311 291 276 309 247 260 259 262 231 219 219 224 227 229 219 234 245 213 209 195 178 162 178 203 187
10 339 323 301 301 320 319 323 323 323 329 332 311 305 299 291 305 297 304 302 321 304 273 270 267 250 253 267 317 245 213 224 222 212 224 226 212 173 172 161 160 170 193 184 173
358 327 314 318 313 307 336 318 322 333 326 329 321 321 321 316 311 310 317 310 301 297 284 276 280 290 259 264 290 295 255 219 220 207 220 227 188 208 177 167 160 178 165 161 168
344 336 333 342 330 305 312 328 325 325 326 324 321 322 314 309 309 312 306 299 298 306 284 305 273 308 275 241 274 288 245 231 216 203 216 232 175 174 138 149 160 158 161 158 170
346 348 335 349 336 319 319 313 319 324 330 318 316 309 312 304 306 292 288 280 271 270 279 288 306 317 252 219 282 277 217 222 205 203 208 223 188 159 132 137 147 153 161 157 173
Height
3115 3114 3113 3113 3112 3112 3111 3110 3111 3112 3111 3112 3114 3117 3117 3118 3122 3121 3122 3133 3132 3136 3137 3140 3141 3143 3143 3143 3146 3149 3149 3145 3147 3149 3149 3149 3148 3150 3151 3150 3151 3152 3153 3152 3152
3110 3108 3107 3106 3104 3104 3104 3104 3103 3102 3103 3103 3106 3107 3109 3110 3113 3111 3123 3121 3125 3127 3130 3134 3136 3139 3137 3139 3141 3143 3141 3139 3144 3146 3145 3145 3146 3147 3148 3148 3150 3149 3150 3150 3149
3104 3102 3101 3100 3099 3097 3095 3094 3094 3094 3094 3094 3095 3095 3098 3101 3105 3106 3108 3113 3115 3119 3124 3127 3130 3132 3132 3136 3138 3138 3130 3138 3140 3142 3143 3142 3141 3143 3143 3143 3145 3143 3145 3145 3142
3097 3096 3095 3093 3091 3089 3088 3087 3087 3086 3086 3086 3087 3088 3090 3094 3101 3094 3096 3102 3106 3110 3113 3117 3120 3122 3127 3128 3132 3131 3129 3134 3135 3138 3137 3136 3137 3136 3137 3137 3139 3139 3139 3138 3137
3092 3090 3089 3087 3085 3083 3081 3079 3078 3078 3077 3076 3077 3079 3081 3081 3082 3088 3091 3093 3095 3099 3103 3108 3110 3114 3114 3123 3128 3120 3124 3129 3130 3132 3131 3131 3130 3130 3129 3132 3132 3132 3131 3131 3130
3090 3087 3084 3082 3079 3077 3076 3074 3072 3069 3067 3066 3067 3068 3068 3067 3075 3080 3079 3084 3087 3092 3095 3099 3100 3109 3109 3113 3117 3119 3121 3120 3123 3124 3124 3124 3123 3124 3123 3127 3124 3125 3123 3122 3122
3086 3083 3081 3078 3075 3072 3070 3067 3066 3065 3063 3060 3058 3056 3053 3052 3064 3067 3066 3071 3078 3083 3087 3092 3098 3101 3103 3104 3110 3114 3113 3112 3110 3116 3113 3121 3111 3110 3116 3118 3115 3115 3115 3115 3115
3082 3078 3075 3071 3068 3065 3064 3062 3060 3057 3055 3053 3052 3049 3038 3051 3051 3054 3057 3059 3068 3072 3075 3081 3087 3090 3095 3099 3103 3104 3107 3098 3100 3108 3101 3116 3100 3101 3108 3110 3107 3108 3107 3106 3106
3078 3074 3071 3067 3064 3061 3058 3055 3050 3048 3047 3046 3046 3041 3038 3038 3042 3042 3046 3048 3057 3062 3066 3073 3080 3082 3087 3090 3093 3094 3089 3088 3086 3097 3101 3104 3097 3090 3099 3101 3099 3098 3098 3098 3098
3077 3074 3070 3065 3061 3056 3055 3052 3047 3043 3039 3038 3039 3039 3038 3037 3040 3040 3043 3042 3045 3051 3057 3063 3070 3073 3077 3078 3068 3076 3083 3074 3082 3090 3092 3091 3089 3084 3091 3093 3091 3091 3090 3089 3089
3076 3071 3066 3062 3058 3054 3051 3048 3050 3046 3036 3038 3041 3030 3034 3037 3038 3039 3041 3041 3043 3045 3048 3056 3063 3054 3037 3059 3067 3076 3073 3073 3077 3083 3085 3084 3083 3076 3083 3083 3082 3081 3080 3081 3083
3074 3069 3064 3059 3055 3051 3047 3045 3044 3042 3029 3030 3026 3023 3024 3028 3028 3032 3038 3038 3040 3039 3044 3051 3040 3023 3061 3060 3064 3068 3069 3066 3070 3076 3078 3076 3073 3071 3073 3073 3074 3074 3072 3073 3074
3072 3067 3062 3057 3054 3050 3046 3046 3039 3036 3029 3015 3010 3011 3016 3025 3021 3024 3029 3030 3032 3035 3038 3039 3019 3052 3049 3053 3060 3056 3056 3063 3064 3072 3071 3071 3064 3061 3063 3064 3065 3065 3066 3066 3065
3069 3064 3059 3056 3052 3048 3048 3041 3039 3033 3026 3011 3011 3012 3015 3020 3019 3021 3021 3025 3027 3028 3033 3030 3034 3036 3042 3042 3050 3046 3055 3061 3063 3067 3062 3069 3052 3048 3055 3056 3057 3058 3057 3056 3055
3067 3063 3057 3053 3050 3045 3043 3039 3036 3032 3024 3015 3013 3016 3016 3019 3017 3018 3017 3020 3021 3023 3029 3008 3023 3030 3032 3025 3045 3033 3057 3055 3057 3058 3061 3057 3056 3024 3049 3048 3050 3050 3049 3048 3049
3066 3062 3057 3052 3046 3043 3039 3035 3033 3033 3023 3020 3017 3016 3014 3013 3011 3014 3015 3016 3017 3017 3016 3011 3020 3023 3022 3032 3037 3045 3047 3050 3052 3052 3047 3037 3050 3019 3039 3044 3042 3042 3042 3041 3042
3065 3061 3056 3052 3048 3042 3037 3036 3035 3030 3025 3023 3019 3019 3017 3016 3013 3012 3012 3013 3013 3013 3010 3009 3010 3013 3019 3022 3028 3034 3039 3041 3045 3040 3023 3037 3039 3023 3034 3037 3034 3034 3034 3035 3037
3064 3061 3057 3049 3048 3044 3039 3038 3036 3031 3026 3023 3019 3014 3013 3012 3009 3008 3008 3009 3009 3009 3007 3007 3002 3003 3008 3009 3017 3022 3025 3024 3024 3022 3023 3032 3024 3020 3025 3027 3028 3028 3028 3031 3033
3064 3060 3054 3053 3049 3045 3042 3039 3035 3031 3028 3024 3020 3017 3013 3011 3008 3006 3003 3004 3005 3005 3008 3003 2995 2998 3003 3008 3013 3012 3019 3017 3024 3021 3021 3013 3013 3012 3018 3020 3023 3023 3026 3029 3030
3064 3060 3056 3053 3049 3045 3043 3040 3035 3033 3029 3026 3023 3021 3015 3009 3007 3005 3001 3000 3002 3002 3004 3003 2997 2990 2991 3002 3000 3004 3012 3019 3014 3017 3013 3011 3006 3004 3009 3012 3017 3020 3022 3024 3027
3063 3059 3056 3053 3048 3046 3043 3039 3034 3032 3029 3026 3022 3019 3015 3010 3008 3005 3003 2999 2999 3000 2999 3000 3000 2983 2990 2984 2992 2997 2998 3003 3012 3013 3008 3010 3005 3002 3004 3009 3013 3017 3020 3021 3024
3063 3060 3054 3053 3050 3046 3042 3039 3034 3027 3026 3023 3020 3016 3013 3010 3005 3001 2998 2996 2993 2996 2994 2995 2991 2985 2982 2981 2989 2991 2993 2998 2999 3004 3008 3010 3004 3002 3004 3008 3011 3015 3017 3020 3023
3061 3061 3053 3052 3048 3043 3040 3037 3032 3028 3024 3021 3017 3014 3012 3008 3004 2997 2994 2990 2995 2993 2991 2988 2985 2982 2982 2979 2975 2979 2988 2993 3000 3007 3004 3006 3003 3003 3005 3007 3011 3013 3015 3018 3021
3061 3062 3059 3052 3048 3043 3038 3033 3030 3026 3021 3018 3016 3012 3009 3005 3002 2996 2992 2992 2990 2989 2987 2986 2983 2982 2977 2974 2979 2978 2983 2985 2992 2996 2998 2999 3000 3002 3003 3005 3009 3011 3013 3016 3021
3062 3061 3055 3049 3043 3040 3036 3030 3027 3024 3021 3016 3011 3010 3007 3003 2998 2995 2993 2992 2989 2987 2984 2982 2977 2977 2975 2974 2978 2977 2975 2979 2981 2989 2995 2992 2997 3002 3003 3005 3007 3010 3013 3017 3022
3060 3056 3051 3044 3041 3037 3034 3031 3026 3022 3019 3013 3011 3007 3004 3001 2996 2991 2989 2988 2986 2982 2981 2980 2973 2972 2969 2973 2977 2976 2969 2970 2978 2986 2992 2991 2995 2998 2997 3001 3007 3011 3013 3017 3023
3057 3053 3047 3043 3040 3038 3032 3027 3024 3019 3014 3013 3009 3003 3001 2998 2993 2988 2984 2980 2980 2979 2979 2979 2975 2969 2964 2972 2974 2964 2957 2964 2971 2980 2985 2990 2992 2995 2998 3005 3008 3012 3016 3020 3024